Location: Pinon Hills
(34.4429°N, 117.6403°W)
Time: 15:41:58
(UTC-08:00)

XW-2F - Pass Details

Date: 25 October 2019
Orbit: 502 x 524 km, 97.5° (Epoch: 17 November)

Event Time Altitude Azimuth Distance (km) Brightness Sun altitude
Rises 05:53:48 0° 35° (NE) 2,604 ? -15.2°
Reaches altitude 10° 05:56:48 10° 63° (ENE) 1,716 ? -14.6°
Maximum altitude 05:58:42 14° 94° (E) 1,501 ? -14.2°
Drops below altitude 10° 06:00:36 10° 125° (SE) 1,714 ? -13.8°
Sets 06:03:35 0° 152° (SSE) 2,597 ? -13.2°
